« Back
NWS Peachtree City, Ga » Text Product » GA Regional Weather Roundup


Printer-friendly Version
Current Version              Previous Versions:   1  2  3  4  5  6  7  8  9  

Regional Weather Roundup

056
ASUS42 KFFC 250303
RWRGA
WEATHER ROUNDUP FOR GEORGIA
NATIONAL WEATHER SERVICE PEACHTREE CITY GA
1100 PM EDT FRI OCT 24 2014

NOTE: "FAIR" INDICATES FEW OR NO CLOUDS BELOW 12,000 FEET WITH NO
SIGNIFICANT WEATHER AND/OR OBSTRUCTIONS TO VISIBILITY.

* = USE WITH CAUTION. THE STATIONS MARKED WITH AN ASTERISK MAY NOT
REPORT WEATHER SUCH AS PRECIPITATION, FOG, OR THUNDER AND ARE NOT
QUALITY CONTROLLED BY NWS.

THE REMARK "TC" DENOTES TEMPERATURE READING IN DEGREES CELSIUS.

GAZ001>058-250400-
NORTH GEORGIA

CITY           SKY/WX    TMP DP  RH WIND       PRES   REMARKS
ATLANTA        PTCLDY    58  43  57 NW6       30.04S
ATHENS         CLEAR     50  47  89 CALM      30.02S
CHAMBLEE       CLEAR     50  43  77 CALM      30.04R
PEACHTREE CITY CLEAR     48  46  93 CALM      30.06S
ROME           CLEAR     48  44  86 CALM      30.06R
WEST ATLANTA   CLEAR     52  47  83 CALM      30.04S
GAINESVILLE    CLEAR     55  46  71 NW3       30.04S
CARTERSVILLE   CLEAR     49  44  83 CALM      30.06R


CITY           SKY/WX    TMP DP  RH WIND       PRES   REMARKS
DALTON*        CLEAR     48  46  93 CALM      30.06S
MARIETTA       CLEAR     55  44  65 NW3       30.04S
KENNESAW*      CLEAR     52  43  71 CALM      30.07S
$$

GAZ059>098-102>109-250400-
CENTRAL GEORGIA

CITY           SKY/WX    TMP DP  RH WIND       PRES   REMARKS
AUGUSTA-BUSH   CLEAR     48  43  82 CALM      30.03R
AUGUSTA-DANIEL CLEAR     60  46  59 CALM      30.03S
COLUMBUS       CLEAR     56  49  77 CALM      30.04S
MACON          CLEAR     50  49  96 W5        30.02F
ROBINS AFB     CLEAR     53  51  94 CALM      29.99F


CITY           SKY/WX    TMP DP  RH WIND       PRES   REMARKS
LAGRANGE*      CLEAR     52  50  93 CALM      30.06R
SYLVANIA*      CLEAR     56  55  94 CALM      30.03R
MILLEDGEVILLE* CLEAR     52  52 100 CALM      30.02S
$$

GAZ099>101-110>166-250400-
SOUTH GEORGIA

CITY           SKY/WX    TMP DP  RH WIND       PRES   REMARKS
SAVANNAH       PTCLDY    55  49  80 CALM      30.02R
VALDOSTA       CLEAR     51  45  79 CALM      30.02R
ALMA           CLEAR     49  47  93 CALM      30.01S
ST SIMONS      CLEAR     55  51  86 CALM      30.01S
FT STEWART     CLEAR     51  48  89 CALM      30.00S
ALBANY         CLEAR     57  52  83 NW3       30.05R
HUNTER AFB     MOCLDY    53  50  89 W2        29.99S
MOODY AFB      CLEAR     53  49  87 S2        30.01S
BRUNSWICK      CLEAR     52  50  93 CALM      30.02S


CITY           SKY/WX    TMP DP  RH WIND       PRES   REMARKS
BAINBRIDGE*    CLEAR     55  52  88 CALM      30.02F
MOULTRIE*      CLEAR     55  54  94 CALM      30.02F
VIDALIA*       CLEAR     54  50  87 CALM      30.03R
WAYCROSS*      CLEAR     55  52  92 CALM      30.02R
DOUGLAS*       CLEAR     54  50  87 CALM      30.03S
$$



USA.gov is the U.S. government's official web portal to all federal, state and local government web resources and services.